Location: Unspecified
(0.0000°N, 0.0000°E)
Time: 09:40:18
(UTC+00:00)

Vanguard 2 - Visible Passes

Search period start: 22 September 2017 00:00
Search period end: 02 October 2017 00:00
Orbit: 554 x 2939 km, 32.9° (Epoch: 21 September)

Date Brightness Start Highest point End Pass type
(mag) Time Alt. Az. Time Alt. Az. Time Alt. Az.
22 Sep 10.4 02:25:46 59° SSE 02:25:46 59° SSE 02:38:33 10° SE visible
22 Sep 10.9 04:27:12 23° WSW 04:35:08 32° SSW 04:47:49 10° SSE visible
23 Sep 11.7 00:41:33 18° ESE 00:41:33 18° ESE 00:44:27 10° ESE visible
23 Sep 10.4 02:42:58 55° S 02:42:58 55° S 02:56:39 10° SE visible
23 Sep 11.1 04:44:24 15° WSW 04:54:12 25° SSW 05:05:29 10° SSE visible
24 Sep 11.5 00:58:39 23° ESE 00:58:39 23° ESE 01:03:16 10° ESE visible
24 Sep 10.5 03:00:05 47° SSW 03:00:05 47° SSW 03:14:37 10° SE visible
24 Sep 11.3 05:02:27 10° WSW 05:13:32 19° SSW 05:23:08 10° SSE visible
25 Sep 11.3 01:15:41 28° SE 01:15:41 28° SE 01:21:46 10° SE visible
25 Sep 10.7 03:17:06 37° SSW 03:17:32 38° SSW 03:32:29 10° SSE visible
25 Sep 11.4 05:24:23 10° SW 05:33:10 16° SSW 05:40:53 10° SSE visible
26 Sep 11.2 01:32:36 32° SE 01:32:36 32° SE 01:40:03 10° SE visible
26 Sep 11.0 03:34:01 29° SW 03:36:39 30° SSW 03:50:20 10° SSE visible
27 Sep 11.1 01:49:27 34° SSE 01:49:27 34° SSE 01:58:08 10° SE visible
27 Sep 11.2 03:50:51 21° SW 03:56:02 24° SSW 04:08:12 10° SSE visible
28 Sep 11.0 02:06:14 34° S 02:06:14 34° S 02:16:09 10° SE visible
28 Sep 11.4 04:07:38 14° SW 04:15:42 19° SSW 04:26:13 10° SSE visible
29 Sep 11.9 00:21:33 12° SE 00:21:33 12° SE 00:22:32 10° SE visible
29 Sep 11.1 02:22:57 31° S 02:22:57 31° S 02:34:06 10° SSE visible
29 Sep 11.6 04:25:58 10° SW 04:35:38 16° SSW 04:44:32 10° SSE visible
30 Sep 11.7 00:38:13 16° SE 00:38:13 16° SE 00:40:46 10° SE visible
30 Sep 11.2 02:39:37 27° SSW 02:39:37 27° SSW 02:52:05 10° SSE visible
30 Sep 11.6 04:47:21 10° SW 04:55:46 15° S 05:03:24 10° SSE visible
30 Sep 10.6 20:13:59 10° N 20:14:29 12° N 20:14:29 12° N visible
01 Oct 11.6 00:54:51 19° SSE 00:54:51 19° SSE 00:58:52 10° SE visible
01 Oct 11.3 02:56:14 22° SSW 02:57:53 22° SSW 03:10:11 10° SSE visible
01 Oct 11.7 05:07:59 10° SSW 05:15:58 14° S 05:23:06 10° SSE visible
01 Oct 10.6 20:31:05 10° NNW 20:31:35 12° NNW 20:31:35 12° NNW visible
